Home > Weather > New Zealand > Wellington > Past weeks

Flag for New Zealand Weather past 2 weeks in Wellington, New Zealand

63 °F

Drizzle. Partly sunny.

Feels Like: 63 °F
Forecast: 59 / 63 °F
Wind: 20 mph from North

Location: Wellington Airport

Current Time: Dec 2, 2015 at 7:17:21 AM

Latest Report: Dec 2, 2015 at 6:30 AM

Visibility: N/A

Pressure: 30.30 "Hg

Humidity: 94%

Dew point: 61 °F

Location of WellingtonLocation

Historic Weather in Wellington — Graph


Wellington temperature yesterday

Maximum temperature yesterday: 68 °F (at 1:00 PM)
Minimum temperature yesterday: 59 °F (at 7:00 AM)
Average temperature yesterday: 63 °F

Past Weeks' High & Low Weather Summary

High72 °F (Nov 22, 12:30 PM)100% (Nov 26, 4:00 AM)30.36 "Hg (Nov 26, 4:00 AM)
Low50 °F (Nov 18, 8:00 AM)36% (Nov 22, 12:30 PM)29.36 "Hg (Nov 22, 6:00 AM)
Average59 °F74%29.94 "Hg
* Reported Nov 17 6:00 AM — Dec 2 6:00 AM, Wellington, Weather by CustomWeather, © 2015

Note: Actual official high and low records may vary slightly from our data, if they occured in-between our weather recording intervals... More about our weather records


Wellington weather history for previous 24 hours

Time TempWeatherWind HumidityBarometerVisibility
6:00 AM
Wed, Dec 2
63 °FOvercast.21 mph94%30.30 "HgN/A
5:30 AM63 °FOvercast.20 mph94%30.30 "HgN/A
5:00 AM63 °FOvercast.21 mph88%30.27 "HgN/A
4:30 AM63 °FSprinkles. Overcast.17 mph94%30.30 "HgN/A
4:00 AM63 °FPassing clouds.17 mph94%30.30 "HgN/A
3:30 AM64 °FOvercast.17 mph88%30.30 "HgN/A
3:00 AM63 °FSprinkles. Overcast.17 mph88%30.30 "HgN/A
2:30 AM63 °FPassing clouds.16 mph88%30.30 "HgN/A
2:00 AM63 °FSprinkles. Passing clouds.16 mph88%30.33 "HgN/A
1:30 AM63 °FSprinkles. Passing clouds.17 mph88%30.33 "HgN/A
1:00 AM63 °FSprinkles. Passing clouds.18 mph88%30.33 "HgN/A
12:30 AM63 °FPassing clouds.17 mph94%30.33 "HgN/A
12:00 AM63 °FSprinkles. Passing clouds.16 mph94%30.33 "HgN/A
11:30 PM
Tue, Dec 1
63 °FSprinkles. Passing clouds.16 mph94%30.33 "HgN/A
11:00 PM63 °FOvercast.15 mph94%30.36 "HgN/A
10:30 PM63 °FOvercast.17 mph94%30.33 "HgN/A
10:00 PM63 °FOvercast.16 mph94%30.33 "HgN/A
9:30 PM63 °FLow clouds.16 mph94%30.33 "HgN/A
8:30 PM63 °FSprinkles. Low clouds.17 mph94%30.33 "Hg4 mi
8:00 PM63 °FSprinkles. Mostly cloudy.16 mph94%30.33 "Hg4 mi
7:30 PM63 °FSprinkles. Mostly cloudy.17 mph94%30.33 "Hg6 mi
7:00 PM64 °FLight rain. Low clouds.16 mph88%30.33 "Hg5 mi
6:30 PM64 °FLow clouds.16 mph88%30.33 "HgN/A
6:00 PM63 °FLow clouds.18 mph94%30.33 "HgN/A
5:30 PM64 °FOvercast.20 mph88%30.33 "HgN/A
5:00 PM64 °FOvercast.16 mph88%30.33 "HgN/A
4:30 PM64 °FOvercast.18 mph88%30.33 "HgN/A
4:00 PM64 °FLight rain. Overcast.20 mph88%30.33 "HgN/A
3:30 PM64 °FSprinkles. Mostly cloudy.20 mph88%30.33 "Hg5 mi
3:00 PM66 °FDrizzle. Mostly cloudy.20 mph88%30.33 "HgN/A
2:00 PM66 °FMostly cloudy.20 mph83%30.33 "HgN/A
1:30 PM68 °FPartly sunny.21 mph78%30.33 "HgN/A
1:00 PM68 °FPartly sunny.20 mph78%30.36 "HgN/A
12:30 PM66 °FPartly sunny.21 mph83%30.36 "HgN/A
12:00 PM66 °FOvercast.20 mph83%30.36 "HgN/A
11:30 AM66 °FOvercast.20 mph83%30.36 "HgN/A
11:00 AM66 °FOvercast.17 mph83%30.36 "HgN/A
10:30 AM66 °FMostly cloudy.14 mph83%30.36 "HgN/A
10:00 AM64 °FPartly sunny.12 mph83%30.36 "HgN/A
9:30 AM63 °FSprinkles. Partly sunny.10 mph88%30.36 "HgN/A
9:00 AM63 °FMore clouds than sun.13 mph88%30.36 "HgN/A
8:30 AM63 °FDrizzle. Mostly cloudy.9 mph88%30.36 "HgN/A
8:00 AM61 °FBroken clouds.10 mph88%30.36 "HgN/A
7:30 AM61 °FMore clouds than sun.9 mph88%30.36 "HgN/A
7:00 AM59 °FMostly cloudy.10 mph94%30.36 "HgN/A
Weather by CustomWeather, © 2015

See weather overviewHow to use our weather pages